Погода в Нефтекамске

Россия / Республика Башкортостан     56°05′18″N   54°14′53″E
темп.,
°C
ветер,
м/с
пор.,
м/с
влажн.,
%
обл.,
%
осадки,
мм/ч
давл.,
гПа
погр.,
м
9 мая, вс
вс923:00+11с11845 1.3 101610
02:00+10ю12854 0.0 101710
05:00+9ю11840 0.0 101710
08:00+12ююв12720 0.0 1017139
11:00+18ююв22530 0.0 1017594
14:00+21ююв22390 0.0 10161689
17:00+21ююв23363 0.0 10162218
20:00+19юв22521 0.0 101719
10 мая, пн
пн1023:00+15юв22561 0.0 101712
02:00+13вюв236193 0.0 101820
05:00+12вюв33690 0.0 101926
08:00+15вюв35645 0.0 1020161
11:00+20ююв3349100 0.0 1020615
14:00+23юв3338100 0.0 10212164
17:00+23юв2335100 0.0 10212323
20:00+20юв114999 0.0 102211
11 мая, вт
вт1123:00+17св2250100 0.0 102311
02:00+15всв2255100 0.0 102413
05:00+14ссв2260100 0.0 102517
08:00+16св2363100 0.0 1026104
11:00+20всв2249100 0.0 1027480
14:00+23всв114093 0.0 10271085
17:00+24з113416 0.0 10272252
20:00+19св496469 0.0 1028242
12 мая, ср
ср1223:00+16св49785 0.0 1029202
02:00+14всв37875 0.0 1030141
05:00+12св37905 0.0 1031125
08:00+15всв35745 0.0 1031248
11:00+19св33554 0.0 1031729
14:00+22св334036 0.0 10311320
17:00+22всв233323 0.0 10301420
20:00+19всв355281 0.0 103085
13 мая, чт
чт1323:00+15всв22564 0.0 103014
02:00+13св22585 0.0 103013
05:00+12всв22645 0.0 103010
08:00+16всв246233 0.0 1029172
11:00+21в33485 0.0 1029744
14:00+24вюв33414 0.0 10281329
17:00+25вюв22395 0.0 10271651
20:00+22в22531 0.0 102716